Regional Weather Roundup
Issued by NWS

Home | Current Version | Previous Version | Graphics & Text | Print | Product List | Glossary On
Versions: 1 2 3 4 5 6 7 8 9 10 11 12 13 14 15 16 17 18 19 20 21 22 23 24 25 26 27 28 29 30 31 32 33 34 35 36 37 38 39 40 41 42 43 44 45 46 47 48 49 50
503
ASUS43 KDMX 140803
RWRIA

WEATHER ROUNDUP FOR IOWA
NATIONAL WEATHER SERVICE DES MOINES IA
200 AM CST SUN FEB 14 2016

NOTE: "FAIR" INDICATES FEW OR NO CLOUDS BELOW 12,000 FEET WITH NO
SIGNIFICANT WEATHER AND/OR OBSTRUCTIONS TO VISIBILITY.

* - THESE STATIONS ARE NOT NWS STATIONS...THUS NOT UNDER NWS
QUALITY CONTROL.  THEY ALSO DO NOT REPORT WEATHER SUCH
AS PRECIPITATION OR FOG.

IAZ001>003-012>014-020>022-031>034-043>046-140900-
   NORTHWEST IOWA

CITY           SKY/WX    TMP DP  RH WIND       PRES   REMARKS
CARROLL *      CLOUDY    14  10  85 SE21      30.10F WCI  -4
CHEROKEE *     CLOUDY    14  10  85 SE13      30.08F WCI   0
DENISON *      CLOUDY    16   9  73 SE10G17   30.07F WCI   3
LE MARS *      CLOUDY    16  12  86 SE14G21   30.04F WCI   1
ORANGE CITY *  CLOUDY    12  10  92 SE13G21   30.02F FOG     WCI  -3
SHELDON *      CLOUDY    12   9  85 SE22G30   30.02F FOG     WCI  -7
SIOUX CITY     CLOUDY    19   7  59 SE16      30.04F WCI   4
SPENCER        CLOUDY    12   7  80 SE21      30.07F HAZE    WCI  -7
STORM LAKE *   CLOUDY    12  12 100 SE21G28   30.07F FOG     WCI  -6
$$

IAZ055>058-069>071-079>083-090>094-140900-
   SOUTHWEST IOWA

CITY           SKY/WX    TMP DP  RH WIND       PRES   REMARKS
ATLANTIC *     CLOUDY    18   7  62 SE12      30.11F WCI   5
AUDUBON *      CLOUDY    16  10  79 SE9       30.09F WCI   4
CLARINDA *     CLOUDY    21   3  45 SE10G17   30.16F WCI  10
COUNCIL BLFS * CLOUDY    19   7  58 SE18      30.08F WCI   4
CRESTON *      CLOUDY    18   7  62 SE18      30.14F WCI   2
HARLAN  *      CLOUDY    18   7  62 SE16      30.11F WCI   3
LAMONI         CLOUDY    18   6  59 SE7       30.17F WCI   9
RED OAK *      CLOUDY    19   5  53 SE12      30.12F WCI   7
SHENANDOAH *   CLOUDY    21   5  49 SE12      30.14F WCI   9
$$

IAZ047>049-059>061-072>074-084-140900-
   CENTRAL IOWA

CITY           SKY/WX    TMP DP  RH WIND       PRES   REMARKS
AMES           CLOUDY    14  10  84 SE16G23   30.20F WCI  -2
ANKENY *       CLOUDY    16  10  79 SE13      30.21F WCI   2
BOONE *        CLOUDY    14  10  85 SE21      30.16F WCI  -4
CHARITON *     CLOUDY    16   9  73 SE15G22   30.19F WCI   1
DES MOINES     CLOUDY    16   8  71 SE12      30.21F WCI   3
GRINNELL*      CLOUDY    14  12  92 E14       30.24F WCI  -1
KNOXVILLE *    CLOUDY    16   9  73 SE15G21   30.20F WCI   1
MARSHALLTOWN   CLOUDY    15  10  80 SE17      30.22F WCI  -1
NEWTON *       CLOUDY    14  12  92 E17G24    30.22F WCI  -3
PELLA *        CLOUDY    16  12  84 SE14      30.25F WCI   1
$$

IAZ004>006-015-016-023>025-035-036-140900-
   NORTH CENTRAL IOWA

CITY           SKY/WX    TMP DP  RH WIND       PRES   REMARKS
ALGONA *       LGT SNOW  14  10  85 SE17      30.12F WCI  -3
CLARION *      CLOUDY    14  10  85 SE22G29   30.16F HAZE    WCI  -4
ESTHERVILLE    CLOUDY    11   9  92 SE22      30.10F FOG     WCI  -8
FORT DODGE *   CLOUDY    12   7  79 SE16G22   30.15F WCI  -4
MASON CITY     LGT SNOW  10   7  87 SE17      30.20F FOG     WCI  -8
FOREST CITY *  LGT SNOW  12   9  85 SE13      30.18F WCI  -3
WEBSTER CITY * CLOUDY    14  10  85 SE22      30.15F FOG     WCI  -4
IOWA FALLS *   LGT SNOW  16  12  86 SE16      30.21F WCI   0
$$

IAZ007>011-017>019-026>030-037>042-050>054-066-140900-
   NORTHEAST IOWA

CITY           SKY/WX    TMP DP  RH WIND       PRES   REMARKS
CEDAR RAPIDS   FLURRIES  15   9  76 SE12      30.28F WCI   2
CHARLES CITY * CLOUDY    12   5  73 SE15      30.23F WCI  -4
CLINTON *      CLOUDY    16   3  56 SE13      30.38F WCI   2
DUBUQUE        CLOUDY    12   1  61 SE9       30.33F WCI   0
MONTICELLO *   CLOUDY    14   5  67 SE10      30.33F WCI   1
OELWEIN *      LGT SNOW  12   7  79 SE17      30.26F WCI  -5
WATERLOO       CLOUDY    15   5  64 SE13      30.26F WCI   1
$$

IAZ064-065-067-068-078-140900-
   EAST CENTRAL IOWA

CITY           SKY/WX    TMP DP  RH WIND       PRES   REMARKS
DAVENPORT      CLOUDY    17   2  51 SE12      30.37F WCI   4
IOWA CITY      FLURRIES  16  11  80 SE13      30.34F WCI   2
MT. PLEASANT * CLOUDY    19  15  84 E13       30.32F WCI   5
MUSCATINE *    CLOUDY    18  12  79 SE7G15    30.37F WCI   8
QUAD CITIES    CLOUDY    19   0  43 SE10      30.37F WCI   7
$$

IAZ062-063-075>077-085>089-095>099-140900-
   SOUTHEAST IOWA

CITY           SKY/WX    TMP DP  RH WIND       PRES   REMARKS
BURLINGTON     LGT SNOW  16  13  88 E9        30.33F FOG     WCI   4
FAIRFIELD *    CLOUDY    16  10  79 E16       30.28F WCI   0
FORT MADISON * CLOUDY    16  12  86 E10       30.32F WCI   3
KEOKUK *       CLOUDY    18  14  86 E13       30.31F WCI   4
OSKALOOSA *    CLOUDY    16  12  86 SE18      30.26F WCI  -1
OTTUMWA        CLOUDY    16  12  84 SE16      30.24F WCI   1
WASHINGTON *   LGT SNOW  16  12  86 SE13      30.33F WCI   2
$$

ABBREVIATIONS USED IN REMARKS
   TC - TEMPERATURES IN CELSIUS
  WCI - WIND CHILL INDEX
   HX - HEAT INDEX
  VSB - VISIBILITY
$$





USA.gov is the U.S. government's official web portal to all federal, state and local government web resources and services.